Вернуться в каталог

COSMOS 2362

GLONASS

АктивенНавигацияMEO
NORAD 25595·PAYLOAD·🇷🇺 Russia

Запущен Dec 30, 1998 с Baikonur Cosmodrome

Loading…

Ближайшие Пролёты (ближайшие 24 часа)

TLE

СвежийSource: Space-Track

Эпоха: Sep 13, 2026, 19:37 UTC

1 25595U 98077C   26256.81773492 -.00000030  00000-0  00000-0 0  9993
2 25595  64.3988  57.1052 0007194  61.3610 295.9444  2.13103814215563

Отслеживайте COSMOS 2362 в реальном времени с AllMySat

Download on the App Store